Time,TemperatureF,DewpointF,PressureIn,WindDirection,WindDirectionDegrees,WindSpeedMPH,WindSpeedGustMPH,Humidity,HourlyPrecipIn,Conditions,Clouds,dailyrainin,SoftwareType,DateUTC
2013-04-08 00:02:00,67.5,60.8,30.07,NNE,33,2.0,3.0,79,0.00,,,0.00,meteohub,2013-04-08 04:02:00,
2013-04-08 00:07:00,67.6,61.0,30.07,NE,35,2.0,4.0,79,0.00,,,0.00,meteohub,2013-04-08 04:07:00,
2013-04-08 00:12:00,67.6,61.2,30.07,NE,42,0.0,4.0,80,0.00,,,0.00,meteohub,2013-04-08 04:12:00,
2013-04-08 00:17:00,67.8,61.3,30.07,NE,42,2.0,4.0,80,0.00,,,0.00,meteohub,2013-04-08 04:17:00,
2013-04-08 00:22:00,67.8,61.3,30.07,ENE,63,3.0,3.0,80,0.00,,,0.00,meteohub,2013-04-08 04:22:00,
2013-04-08 00:32:00,68.2,61.7,30.07,East,87,1.0,5.0,80,0.00,,,0.00,meteohub,2013-04-08 04:32:00,
2013-04-08 00:37:00,68.4,61.9,30.07,East,89,0.0,6.0,80,0.00,,,0.00,meteohub,2013-04-08 04:37:00,
2013-04-08 00:42:00,68.5,62.1,30.07,East,91,3.0,7.0,80,0.00,,,0.00,meteohub,2013-04-08 04:42:00,
2013-04-08 00:47:00,68.7,62.2,30.07,East,98,2.0,7.0,80,0.00,,,0.00,meteohub,2013-04-08 04:47:00,
2013-04-08 00:52:00,69.1,62.2,30.07,East,100,1.0,7.0,79,0.00,,,0.00,meteohub,2013-04-08 04:52:00,
2013-04-08 00:57:00,69.3,62.4,30.07,East,92,1.0,8.0,79,0.00,,,0.00,meteohub,2013-04-08 04:57:00,
2013-04-08 01:02:00,69.6,62.4,30.07,East,81,1.0,9.0,78,0.00,,,0.00,meteohub,2013-04-08 05:02:00,
2013-04-08 01:12:00,69.8,62.2,30.07,East,92,3.0,9.0,77,0.00,,,0.00,meteohub,2013-04-08 05:12:00,
2013-04-08 01:17:00,69.6,62.4,30.07,East,83,2.0,9.0,78,0.00,,,0.00,meteohub,2013-04-08 05:17:00,
2013-04-08 01:27:00,69.6,62.4,30.06,ESE,103,2.0,8.0,78,0.00,,,0.00,meteohub,2013-04-08 05:27:00,
2013-04-08 01:32:00,69.6,62.4,30.06,East,92,3.0,8.0,78,0.00,,,0.00,meteohub,2013-04-08 05:32:00,
2013-04-08 01:37:00,69.6,62.4,30.06,SE,136,1.0,9.0,78,0.00,,,0.00,meteohub,2013-04-08 05:37:00,
2013-04-08 01:42:00,69.4,62.2,30.06,East,80,9.0,9.0,78,0.00,,,0.00,meteohub,2013-04-08 05:42:00,
2013-04-08 01:52:00,69.3,62.1,30.06,ENE,76,1.0,9.0,78,0.00,,,0.00,meteohub,2013-04-08 05:52:00,
2013-04-08 02:02:00,68.9,61.7,30.06,East,96,2.0,6.0,78,0.00,,,0.00,meteohub,2013-04-08 06:02:00,
2013-04-08 02:07:00,68.7,61.9,30.06,ESE,103,4.0,6.0,79,0.00,,,0.00,meteohub,2013-04-08 06:07:00,
2013-04-08 02:12:00,68.5,61.7,30.06,East,101,3.0,7.0,79,0.00,,,0.00,meteohub,2013-04-08 06:12:00,
2013-04-08 02:17:00,68.5,62.1,30.06,ESE,104,0.0,8.0,80,0.00,,,0.00,meteohub,2013-04-08 06:17:00,
2013-04-08 02:22:00,68.5,61.7,30.05,ESE,111,3.0,8.0,79,0.00,,,0.00,meteohub,2013-04-08 06:22:00,
2013-04-08 02:27:00,68.4,61.5,30.05,East,101,2.0,8.0,79,0.00,,,0.00,meteohub,2013-04-08 06:27:00,
2013-04-08 02:32:00,68.5,61.7,30.05,East,92,3.0,8.0,79,0.00,,,0.00,meteohub,2013-04-08 06:32:00,
2013-04-08 02:37:00,68.5,62.1,30.05,East,96,2.0,7.0,80,0.00,,,0.00,meteohub,2013-04-08 06:37:00,
2013-04-08 02:42:00,68.5,62.1,30.05,East,82,3.0,6.0,80,0.00,,,0.00,meteohub,2013-04-08 06:42:00,
2013-04-08 02:47:00,68.5,62.1,30.04,East,96,2.0,8.0,80,0.00,,,0.00,meteohub,2013-04-08 06:47:00,
2013-04-08 02:52:00,68.7,62.2,30.05,East,101,3.0,8.0,80,0.00,,,0.00,meteohub,2013-04-08 06:52:00,
2013-04-08 02:57:00,68.7,62.2,30.04,East,95,1.0,8.0,80,0.00,,,0.00,meteohub,2013-04-08 06:57:00,
2013-04-08 03:02:00,68.7,62.2,30.04,East,94,5.0,8.0,80,0.00,,,0.00,meteohub,2013-04-08 07:02:00,
2013-04-08 03:12:00,68.5,62.1,30.04,East,99,5.0,9.0,80,0.00,,,0.00,meteohub,2013-04-08 07:12:00,
2013-04-08 03:17:00,68.4,61.9,30.04,ESE,107,2.0,9.0,80,0.00,,,0.00,meteohub,2013-04-08 07:17:00,
2013-04-08 03:22:00,68.4,61.9,30.04,ESE,109,0.0,8.0,80,0.00,,,0.00,meteohub,2013-04-08 07:22:00,
2013-04-08 03:27:00,68.4,61.9,30.04,ESE,109,1.0,10.0,80,0.00,,,0.00,meteohub,2013-04-08 07:27:00,
2013-04-08 03:32:00,68.4,61.9,30.04,East,101,2.0,10.0,80,0.00,,,0.00,meteohub,2013-04-08 07:32:00,
2013-04-08 03:37:00,68.2,61.7,30.03,East,96,6.0,10.0,80,0.00,,,0.00,meteohub,2013-04-08 07:37:00,
2013-04-08 03:47:00,68.0,61.9,30.03,ESE,109,4.0,8.0,81,0.00,,,0.00,meteohub,2013-04-08 07:47:00,
2013-04-08 03:52:00,67.8,61.7,30.03,ESE,103,5.0,9.0,81,0.00,,,0.00,meteohub,2013-04-08 07:52:00,
2013-04-08 03:57:00,67.8,61.7,30.03,ESE,120,3.0,9.0,81,0.00,,,0.00,meteohub,2013-04-08 07:57:00,
2013-04-08 04:07:00,67.6,61.9,30.02,ESE,119,3.0,8.0,82,0.00,,,0.00,meteohub,2013-04-08 08:07:00,
2013-04-08 04:12:00,67.5,61.7,30.02,ESE,114,3.0,9.0,82,0.00,,,0.00,meteohub,2013-04-08 08:12:00,
2013-04-08 04:17:00,67.5,61.7,30.02,ESE,111,5.0,9.0,82,0.00,,,0.00,meteohub,2013-04-08 08:17:00,
2013-04-08 04:22:00,67.5,62.1,30.02,ESE,115,2.0,8.0,83,0.00,,,0.00,meteohub,2013-04-08 08:22:00,
2013-04-08 04:32:00,67.3,61.9,30.02,ESE,116,3.0,8.0,83,0.00,,,0.00,meteohub,2013-04-08 08:32:00,
2013-04-08 04:37:00,67.3,61.9,30.02,ESE,113,1.0,7.0,83,0.00,,,0.00,meteohub,2013-04-08 08:37:00,
2013-04-08 04:42:00,67.1,61.7,30.02,ESE,117,3.0,7.0,83,0.00,,,0.00,meteohub,2013-04-08 08:42:00,
2013-04-08 04:52:00,67.1,62.1,30.02,ESE,115,2.0,8.0,84,0.00,,,0.00,meteohub,2013-04-08 08:52:00,
2013-04-08 04:57:00,66.9,61.9,30.02,ESE,105,2.0,8.0,84,0.00,,,0.00,meteohub,2013-04-08 08:57:00,
2013-04-08 05:02:00,66.9,61.9,30.02,ESE,116,1.0,8.0,84,0.00,,,0.00,meteohub,2013-04-08 09:02:00,
2013-04-08 05:07:00,66.9,61.9,30.02,ESE,105,3.0,8.0,84,0.00,,,0.00,meteohub,2013-04-08 09:07:00,
2013-04-08 05:17:00,66.7,61.7,30.02,ESE,107,2.0,8.0,84,0.00,,,0.00,meteohub,2013-04-08 09:17:00,
2013-04-08 05:22:00,66.7,61.7,30.02,ESE,115,5.0,9.0,84,0.00,,,0.00,meteohub,2013-04-08 09:22:00,
2013-04-08 05:27:00,66.7,61.7,30.02,ESE,111,3.0,9.0,84,0.00,,,0.00,meteohub,2013-04-08 09:27:00,
2013-04-08 05:32:00,66.9,61.9,30.02,East,94,5.0,10.0,84,0.00,,,0.00,meteohub,2013-04-08 09:32:00,
2013-04-08 05:42:00,66.7,61.7,30.03,ESE,112,3.0,8.0,84,0.00,,,0.00,meteohub,2013-04-08 09:42:00,
2013-04-08 05:52:00,66.7,61.7,30.02,ESE,113,4.0,7.0,84,0.00,,,0.00,meteohub,2013-04-08 09:52:00,
2013-04-08 05:57:00,66.6,61.5,30.02,ESE,115,2.0,7.0,84,0.00,,,0.00,meteohub,2013-04-08 09:57:00,
2013-04-08 06:02:00,66.6,61.5,30.03,ESE,104,1.0,7.0,84,0.00,,,0.00,meteohub,2013-04-08 10:02:00,
2013-04-08 06:07:00,66.4,61.7,30.03,ESE,102,3.0,7.0,85,0.00,,,0.00,meteohub,2013-04-08 10:07:00,
2013-04-08 06:12:00,66.0,61.3,30.03,East,99,2.0,7.0,85,0.00,,,0.00,meteohub,2013-04-08 10:12:00,
2013-04-08 06:17:00,65.8,61.2,30.03,East,96,1.0,7.0,85,0.00,,,0.00,meteohub,2013-04-08 10:17:00,
2013-04-08 06:22:00,65.8,61.5,30.04,East,96,5.0,7.0,86,0.00,,,0.00,meteohub,2013-04-08 10:22:00,
2013-04-08 06:27:00,65.7,61.3,30.04,East,98,0.0,7.0,86,0.00,,,0.00,meteohub,2013-04-08 10:27:00,
2013-04-08 06:37:00,65.5,61.5,30.04,East,92,1.0,6.0,87,0.00,,,0.00,meteohub,2013-04-08 10:37:00,
2013-04-08 06:42:00,65.5,61.5,30.04,East,90,2.0,6.0,87,0.00,,,0.00,meteohub,2013-04-08 10:42:00,
2013-04-08 06:47:00,65.5,61.5,30.04,East,90,2.0,6.0,87,0.00,,,0.00,meteohub,2013-04-08 10:47:00,
2013-04-08 06:52:00,65.5,61.5,30.04,East,91,3.0,6.0,87,0.00,,,0.00,meteohub,2013-04-08 10:52:00,
2013-04-08 06:57:00,65.3,61.3,30.05,East,87,1.0,6.0,87,0.00,,,0.00,meteohub,2013-04-08 10:57:00,
2013-04-08 07:02:00,65.1,61.5,30.05,East,86,1.0,7.0,88,0.00,,,0.00,meteohub,2013-04-08 11:02:00,
2013-04-08 07:07:00,65.1,61.5,30.05,East,89,1.0,7.0,88,0.00,,,0.00,meteohub,2013-04-08 11:07:00,
2013-04-08 07:12:00,65.1,61.5,30.06,East,91,3.0,7.0,88,0.00,,,0.00,meteohub,2013-04-08 11:12:00,
2013-04-08 07:17:00,65.1,61.5,30.05,East,91,2.0,7.0,88,0.00,,,0.00,meteohub,2013-04-08 11:17:00,
2013-04-08 07:27:00,64.9,61.3,30.06,East,89,3.0,6.0,88,0.00,,,0.00,meteohub,2013-04-08 11:27:00,
2013-04-08 07:32:00,65.1,61.5,30.06,East,91,1.0,6.0,88,0.00,,,0.00,meteohub,2013-04-08 11:32:00,
2013-04-08 07:37:00,65.1,61.5,30.06,East,88,3.0,6.0,88,0.00,,,0.00,meteohub,2013-04-08 11:37:00,
2013-04-08 07:42:00,65.1,61.5,30.06,East,95,5.0,7.0,88,0.00,,,0.00,meteohub,2013-04-08 11:42:00,
2013-04-08 07:47:00,65.3,61.3,30.06,East,93,2.0,7.0,87,0.00,,,0.00,meteohub,2013-04-08 11:47:00,
2013-04-08 07:52:00,65.5,61.5,30.06,East,82,7.0,7.0,87,0.00,,,0.00,meteohub,2013-04-08 11:52:00,
2013-04-08 07:57:00,65.7,61.3,30.06,ESE,107,0.0,9.0,86,0.00,,,0.00,meteohub,2013-04-08 11:57:00,
2013-04-08 08:02:00,65.8,61.5,30.07,East,95,3.0,9.0,86,0.00,,,0.00,meteohub,2013-04-08 12:02:00,
2013-04-08 08:12:00,66.4,62.1,30.07,East,92,3.0,8.0,86,0.00,,,0.00,meteohub,2013-04-08 12:12:00,
2013-04-08 08:17:00,66.6,61.9,30.07,East,98,2.0,8.0,85,0.00,,,0.00,meteohub,2013-04-08 12:17:00,
2013-04-08 08:22:00,66.7,61.7,30.07,ESE,106,7.0,9.0,84,0.00,,,0.00,meteohub,2013-04-08 12:22:00,
2013-04-08 08:32:00,67.3,61.9,30.07,East,92,7.0,9.0,83,0.00,,,0.00,meteohub,2013-04-08 12:32:00,
2013-04-08 08:37:00,67.6,62.2,30.08,East,93,1.0,9.0,83,0.00,,,0.00,meteohub,2013-04-08 12:37:00,
2013-04-08 08:42:00,67.8,62.1,30.08,East,97,3.0,9.0,82,0.00,,,0.00,meteohub,2013-04-08 12:42:00,
2013-04-08 08:47:00,68.4,62.6,30.08,ESE,117,7.0,9.0,82,0.00,,,0.00,meteohub,2013-04-08 12:47:00,
2013-04-08 08:57:00,68.9,62.8,30.08,ESE,109,0.0,8.0,81,0.00,,,0.00,meteohub,2013-04-08 12:57:00,
2013-04-08 09:02:00,69.4,63.0,30.08,ESE,117,0.0,8.0,80,0.00,,,0.00,meteohub,2013-04-08 13:02:00,
2013-04-08 09:12:00,70.0,62.8,30.09,ESE,108,3.0,9.0,78,0.00,,,0.00,meteohub,2013-04-08 13:12:00,
2013-04-08 09:17:00,70.3,63.1,30.09,SE,125,6.0,11.0,78,0.00,,,0.00,meteohub,2013-04-08 13:17:00,
2013-04-08 09:27:00,71.6,63.7,30.09,ESE,119,3.0,8.0,76,0.00,,,0.00,meteohub,2013-04-08 13:27:00,
2013-04-08 09:37:00,71.8,63.9,30.09,ESE,111,5.0,10.0,76,0.00,,,0.00,meteohub,2013-04-08 13:37:00,
2013-04-08 09:42:00,72.3,63.9,30.09,SE,138,1.0,10.0,75,0.00,,,0.00,meteohub,2013-04-08 13:42:00,
2013-04-08 09:47:00,72.5,63.7,30.09,SE,140,1.0,13.0,74,0.00,,,0.00,meteohub,2013-04-08 13:47:00,
2013-04-08 09:57:00,73.2,63.7,30.09,SE,143,7.0,13.0,72,0.00,,,0.00,meteohub,2013-04-08 13:57:00,
2013-04-08 10:02:00,73.2,64.0,30.09,SE,140,7.0,12.0,73,0.00,,,0.00,meteohub,2013-04-08 14:02:00,
2013-04-08 10:12:00,73.2,63.3,30.09,SE,129,4.0,11.0,71,0.00,,,0.00,meteohub,2013-04-08 14:12:00,
2013-04-08 10:17:00,73.2,63.7,30.09,ESE,123,7.0,13.0,72,0.00,,,0.00,meteohub,2013-04-08 14:17:00,
2013-04-08 10:27:00,73.9,63.9,30.10,East,101,10.0,13.0,71,0.00,,,0.00,meteohub,2013-04-08 14:27:00,
2013-04-08 10:37:00,74.7,62.6,30.10,SSE,147,5.0,13.0,66,0.00,,,0.00,meteohub,2013-04-08 14:37:00,
2013-04-08 10:42:00,74.3,62.6,30.10,ESE,106,9.0,13.0,67,0.00,,,0.00,meteohub,2013-04-08 14:42:00,
2013-04-08 10:47:00,74.7,62.6,30.10,SSE,158,1.0,13.0,66,0.00,,,0.00,meteohub,2013-04-08 14:47:00,
2013-04-08 10:52:00,75.4,62.8,30.10,SE,124,7.0,13.0,65,0.00,,,0.00,meteohub,2013-04-08 14:52:00,
2013-04-08 10:57:00,75.4,61.9,30.10,East,88,7.0,13.0,63,0.00,,,0.00,meteohub,2013-04-08 14:57:00,
2013-04-08 11:02:00,74.8,61.9,30.10,ESE,122,3.0,15.0,64,0.00,,,0.00,meteohub,2013-04-08 15:02:00,
2013-04-08 11:07:00,74.8,62.2,30.10,ESE,103,4.0,15.0,65,0.00,,,0.00,meteohub,2013-04-08 15:07:00,
2013-04-08 11:17:00,75.4,62.4,30.10,East,92,8.0,14.0,64,0.00,,,0.00,meteohub,2013-04-08 15:17:00,
2013-04-08 11:22:00,75.2,62.2,30.10,ESE,123,7.0,14.0,64,0.00,,,0.00,meteohub,2013-04-08 15:22:00,
2013-04-08 11:27:00,75.4,61.9,30.10,East,91,5.0,12.0,63,0.00,,,0.00,meteohub,2013-04-08 15:27:00,
2013-04-08 11:32:00,75.7,61.9,30.10,SSE,164,8.0,13.0,62,0.00,,,0.00,meteohub,2013-04-08 15:32:00,
2013-04-08 11:42:00,76.5,60.6,30.10,ENE,68,4.0,14.0,58,0.00,,,0.00,meteohub,2013-04-08 15:42:00,
2013-04-08 11:47:00,77.0,61.2,30.10,ESE,119,7.0,14.0,58,0.00,,,0.00,meteohub,2013-04-08 15:47:00,
2013-04-08 11:52:00,77.2,61.3,30.10,South,169,9.0,13.0,58,0.00,,,0.00,meteohub,2013-04-08 15:52:00,
2013-04-08 11:57:00,77.2,60.3,30.10,SSE,163,7.0,11.0,56,0.00,,,0.00,meteohub,2013-04-08 15:57:00,
2013-04-08 12:02:00,77.0,60.6,30.10,SE,133,9.0,12.0,57,0.00,,,0.00,meteohub,2013-04-08 16:02:00,
2013-04-08 12:12:00,77.2,60.3,30.10,SE,133,9.0,13.0,56,0.00,,,0.00,meteohub,2013-04-08 16:12:00,
2013-04-08 12:17:00,77.7,60.3,30.10,SSE,155,5.0,13.0,55,0.00,,,0.00,meteohub,2013-04-08 16:17:00,
2013-04-08 12:22:00,78.3,60.8,30.10,SSE,149,1.0,13.0,55,0.00,,,0.00,meteohub,2013-04-08 16:22:00,
2013-04-08 12:32:00,78.4,60.4,30.09,SSE,150,8.0,11.0,54,0.00,,,0.00,meteohub,2013-04-08 16:32:00,
2013-04-08 12:37:00,78.3,60.8,30.09,SSE,152,5.0,11.0,55,0.00,,,0.00,meteohub,2013-04-08 16:37:00,
2013-04-08 12:47:00,79.0,60.4,30.09,South,169,7.0,11.0,53,0.00,,,0.00,meteohub,2013-04-08 16:47:00,
2013-04-08 12:57:00,79.3,60.8,30.09,SE,137,5.0,11.0,53,0.00,,,0.00,meteohub,2013-04-08 16:57:00,
2013-04-08 13:07:00,80.2,59.9,30.08,SW,215,6.0,11.0,50,0.00,,,0.00,meteohub,2013-04-08 17:07:00,
2013-04-08 13:12:00,79.9,59.5,30.08,SE,140,1.0,11.0,50,0.00,,,0.00,meteohub,2013-04-08 17:12:00,
2013-04-08 13:22:00,79.9,60.1,30.07,East,85,5.0,11.0,51,0.00,,,0.00,meteohub,2013-04-08 17:22:00,
2013-04-08 13:32:00,81.0,59.4,30.07,SE,139,2.0,10.0,48,0.00,,,0.00,meteohub,2013-04-08 17:32:00,
2013-04-08 13:37:00,81.0,59.4,30.07,SSE,155,7.0,9.0,48,0.00,,,0.00,meteohub,2013-04-08 17:37:00,
2013-04-08 13:47:00,80.8,59.9,30.06,East,96,7.0,10.0,49,0.00,,,0.00,meteohub,2013-04-08 17:47:00,
2013-04-08 13:52:00,81.1,60.8,30.06,SSE,165,4.0,11.0,50,0.00,,,0.00,meteohub,2013-04-08 17:52:00,
2013-04-08 14:02:00,81.0,58.8,30.06,South,169,6.0,12.0,47,0.00,,,0.00,meteohub,2013-04-08 18:02:00,
2013-04-08 14:07:00,81.0,59.4,30.06,South,173,10.0,12.0,48,0.00,,,0.00,meteohub,2013-04-08 18:07:00,
2013-04-08 14:12:00,81.0,59.4,30.06,SE,135,9.0,12.0,48,0.00,,,0.00,meteohub,2013-04-08 18:12:00,
2013-04-08 14:17:00,80.6,58.5,30.06,ESE,106,4.0,12.0,47,0.00,,,0.00,meteohub,2013-04-08 18:17:00,
2013-04-08 14:22:00,81.0,59.4,30.06,South,176,6.0,12.0,48,0.00,,,0.00,meteohub,2013-04-08 18:22:00,
2013-04-08 14:27:00,81.5,59.9,30.05,ESE,112,4.0,13.0,48,0.00,,,0.00,meteohub,2013-04-08 18:27:00,
2013-04-08 14:32:00,82.0,59.2,30.05,ESE,103,4.0,13.0,46,0.00,,,0.00,meteohub,2013-04-08 18:32:00,
2013-04-08 14:37:00,81.9,58.5,30.05,SE,128,3.0,13.0,45,0.00,,,0.00,meteohub,2013-04-08 18:37:00,
2013-04-08 14:42:00,81.5,58.6,30.05,SE,126,7.0,11.0,46,0.00,,,0.00,meteohub,2013-04-08 18:42:00,
2013-04-08 14:52:00,81.9,59.0,30.04,SE,126,9.0,11.0,46,0.00,,,0.00,meteohub,2013-04-08 18:52:00,
2013-04-08 14:57:00,81.9,59.0,30.04,South,188,6.0,9.0,46,0.00,,,0.00,meteohub,2013-04-08 18:57:00,
2013-04-08 15:02:00,82.2,58.8,30.04,SSW,201,0.0,9.0,45,0.00,,,0.00,meteohub,2013-04-08 19:02:00,
2013-04-08 15:07:00,82.0,58.6,30.04,SE,141,2.0,9.0,45,0.00,,,0.00,meteohub,2013-04-08 19:07:00,
2013-04-08 15:17:00,82.0,59.2,30.04,SSE,165,3.0,10.0,46,0.00,,,0.00,meteohub,2013-04-08 19:17:00,
2013-04-08 15:22:00,82.6,59.0,30.04,SSE,148,3.0,10.0,45,0.00,,,0.00,meteohub,2013-04-08 19:22:00,
2013-04-08 15:27:00,82.6,58.5,30.03,South,172,4.0,10.0,44,0.00,,,0.00,meteohub,2013-04-08 19:27:00,
2013-04-08 15:37:00,82.9,60.1,30.03,ESE,111,4.0,9.0,46,0.00,,,0.00,meteohub,2013-04-08 19:37:00,
2013-04-08 15:42:00,83.3,58.5,30.03,SE,127,0.0,9.0,43,0.00,,,0.00,meteohub,2013-04-08 19:42:00,
2013-04-08 15:52:00,83.1,58.3,30.02,ESE,117,1.0,9.0,43,0.00,,,0.00,meteohub,2013-04-08 19:52:00,
2013-04-08 15:57:00,82.9,58.8,30.02,SSE,147,4.0,9.0,44,0.00,,,0.00,meteohub,2013-04-08 19:57:00,
2013-04-08 16:02:00,82.9,58.8,30.02,SSE,164,3.0,12.0,44,0.00,,,0.00,meteohub,2013-04-08 20:02:00,
2013-04-08 16:07:00,83.7,59.4,30.02,South,177,5.0,12.0,44,0.00,,,0.00,meteohub,2013-04-08 20:07:00,
2013-04-08 16:12:00,83.8,58.3,30.02,SSW,208,4.0,12.0,42,0.00,,,0.00,meteohub,2013-04-08 20:12:00,
2013-04-08 16:17:00,83.8,59.0,30.02,SSW,193,3.0,10.0,43,0.00,,,0.00,meteohub,2013-04-08 20:17:00,
2013-04-08 16:22:00,84.0,59.2,30.02,ESE,103,4.0,8.0,43,0.00,,,0.00,meteohub,2013-04-08 20:22:00,
2013-04-08 16:27:00,83.7,58.8,30.01,North,5,6.0,8.0,43,0.00,,,0.00,meteohub,2013-04-08 20:27:00,
2013-04-08 16:37:00,84.4,58.8,30.01,SSE,155,3.0,8.0,42,0.00,,,0.00,meteohub,2013-04-08 20:37:00,
2013-04-08 16:42:00,84.6,58.3,30.01,NNE,14,3.0,8.0,41,0.00,,,0.00,meteohub,2013-04-08 20:42:00,
2013-04-08 16:47:00,84.4,63.1,30.01,NW,315,9.0,9.0,49,0.00,,,0.00,meteohub,2013-04-08 20:47:00,
2013-04-08 16:57:00,81.5,63.9,30.01,WSW,254,8.0,10.0,55,0.00,,,0.00,meteohub,2013-04-08 20:57:00,
2013-04-08 17:07:00,81.0,64.2,30.01,West,267,7.0,12.0,57,0.00,,,0.00,meteohub,2013-04-08 21:07:00,
2013-04-08 17:12:00,80.6,63.5,30.01,NNW,335,6.0,13.0,56,0.00,,,0.00,meteohub,2013-04-08 21:12:00,
2013-04-08 17:17:00,80.1,61.9,30.01,WNW,292,4.0,14.0,54,0.00,,,0.00,meteohub,2013-04-08 21:17:00,
2013-04-08 17:22:00,79.9,62.2,30.02,West,272,6.0,14.0,55,0.00,,,0.00,meteohub,2013-04-08 21:22:00,
2013-04-08 17:27:00,79.9,61.2,30.02,WNW,296,8.0,14.0,53,0.00,,,0.00,meteohub,2013-04-08 21:27:00,
2013-04-08 17:32:00,79.9,61.2,30.02,WNW,286,4.0,10.0,53,0.00,,,0.00,meteohub,2013-04-08 21:32:00,
2013-04-08 17:37:00,79.9,61.2,30.02,West,269,5.0,10.0,53,0.00,,,0.00,meteohub,2013-04-08 21:37:00,
2013-04-08 17:47:00,79.3,61.2,30.02,WNW,286,6.0,12.0,54,0.00,,,0.00,meteohub,2013-04-08 21:47:00,
2013-04-08 17:52:00,79.3,61.2,30.02,WNW,282,6.0,15.0,54,0.00,,,0.00,meteohub,2013-04-08 21:52:00,
2013-04-08 17:57:00,78.6,62.6,30.02,WSW,249,11.0,15.0,58,0.00,,,0.00,meteohub,2013-04-08 21:57:00,
2013-04-08 18:07:00,78.1,63.1,30.02,WSW,247,6.0,13.0,60,0.00,,,0.00,meteohub,2013-04-08 22:07:00,
2013-04-08 18:12:00,77.5,62.1,30.02,West,275,7.0,12.0,59,0.00,,,0.00,meteohub,2013-04-08 22:12:00,
2013-04-08 18:17:00,77.2,63.1,30.03,WNW,290,5.0,13.0,62,0.00,,,0.00,meteohub,2013-04-08 22:17:00,
2013-04-08 18:22:00,76.6,63.1,30.03,WSW,256,8.0,13.0,63,0.00,,,0.00,meteohub,2013-04-08 22:22:00,
2013-04-08 18:32:00,75.9,64.2,30.03,West,273,5.0,13.0,67,0.00,,,0.00,meteohub,2013-04-08 22:32:00,
2013-04-08 18:37:00,75.4,64.6,30.03,WSW,254,6.0,10.0,69,0.00,,,0.00,meteohub,2013-04-08 22:37:00,
2013-04-08 18:42:00,75.2,64.8,30.04,NW,316,6.0,10.0,70,0.00,,,0.00,meteohub,2013-04-08 22:42:00,
2013-04-08 18:52:00,74.3,64.8,30.04,WNW,286,5.0,11.0,72,0.00,,,0.00,meteohub,2013-04-08 22:52:00,
2013-04-08 18:57:00,73.9,64.4,30.03,West,265,4.0,13.0,72,0.00,,,0.00,meteohub,2013-04-08 22:57:00,
2013-04-08 19:07:00,73.9,64.8,30.04,NW,320,8.0,13.0,73,0.00,,,0.00,meteohub,2013-04-08 23:07:00,
2013-04-08 19:12:00,73.6,64.4,30.03,WNW,290,6.0,9.0,73,0.00,,,0.00,meteohub,2013-04-08 23:12:00,
2013-04-08 19:17:00,73.4,64.6,30.03,WNW,289,4.0,10.0,74,0.00,,,0.00,meteohub,2013-04-08 23:17:00,
2013-04-08 19:22:00,73.2,64.4,30.03,NW,305,5.0,10.0,74,0.00,,,0.00,meteohub,2013-04-08 23:22:00,
2013-04-08 19:27:00,73.0,64.2,30.03,WNW,286,6.0,9.0,74,0.00,,,0.00,meteohub,2013-04-08 23:27:00,
2013-04-08 19:32:00,72.9,64.0,30.03,NW,322,3.0,9.0,74,0.00,,,0.00,meteohub,2013-04-08 23:32:00,
2013-04-08 19:37:00,72.9,63.7,30.03,WNW,296,7.0,9.0,73,0.00,,,0.00,meteohub,2013-04-08 23:37:00,
2013-04-08 19:42:00,72.7,63.9,30.03,WNW,303,4.0,9.0,74,0.00,,,0.00,meteohub,2013-04-08 23:42:00,
2013-04-08 19:47:00,72.3,63.5,30.03,NNW,339,6.0,8.0,74,0.00,,,0.00,meteohub,2013-04-08 23:47:00,
2013-04-08 19:52:00,72.3,63.5,30.03,NW,304,7.0,9.0,74,0.00,,,0.00,meteohub,2013-04-08 23:52:00,
2013-04-08 19:57:00,72.1,63.3,30.03,NW,325,3.0,9.0,74,0.00,,,0.00,meteohub,2013-04-08 23:57:00,
2013-04-08 20:02:00,72.0,63.7,30.03,NW,323,2.0,8.0,75,0.00,,,0.00,meteohub,2013-04-09 00:02:00,
2013-04-08 20:12:00,71.8,63.9,30.04,NW,305,3.0,7.0,76,0.00,,,0.00,meteohub,2013-04-09 00:12:00,
2013-04-08 20:17:00,71.6,63.7,30.04,NW,305,1.0,7.0,76,0.00,,,0.00,meteohub,2013-04-09 00:17:00,
2013-04-08 20:22:00,71.4,63.5,30.04,WNW,302,2.0,7.0,76,0.00,,,0.00,meteohub,2013-04-09 00:22:00,
2013-04-08 20:27:00,71.2,63.7,30.04,WNW,302,2.0,5.0,77,0.00,,,0.00,meteohub,2013-04-09 00:27:00,
2013-04-08 20:32:00,71.2,63.7,30.04,WNW,302,2.0,5.0,77,0.00,,,0.00,meteohub,2013-04-09 00:32:00,
2013-04-08 20:37:00,71.1,63.9,30.04,WNW,303,2.0,5.0,78,0.00,,,0.00,meteohub,2013-04-09 00:37:00,
2013-04-08 20:42:00,70.9,63.7,30.05,WNW,303,2.0,5.0,78,0.00,,,0.00,meteohub,2013-04-09 00:42:00,
2013-04-08 20:47:00,70.7,63.9,30.05,NW,304,1.0,5.0,79,0.00,,,0.00,meteohub,2013-04-09 00:47:00,
2013-04-08 20:52:00,70.5,64.0,30.05,NW,304,2.0,5.0,80,0.00,,,0.00,meteohub,2013-04-09 00:52:00,
2013-04-08 20:57:00,70.3,63.9,30.05,NW,304,3.0,4.0,80,0.00,,,0.00,meteohub,2013-04-09 00:57:00,
2013-04-08 21:02:00,70.3,64.2,30.06,NW,304,2.0,4.0,81,0.00,,,0.00,meteohub,2013-04-09 01:02:00,
2013-04-08 21:07:00,70.2,64.0,30.06,NW,304,3.0,4.0,81,0.00,,,0.00,meteohub,2013-04-09 01:07:00,
2013-04-08 21:17:00,69.8,64.4,30.06,NW,304,2.0,4.0,83,0.00,,,0.00,meteohub,2013-04-09 01:17:00,
2013-04-08 21:27:00,69.6,64.6,30.06,NW,304,0.0,4.0,84,0.00,,,0.00,meteohub,2013-04-09 01:27:00,
2013-04-08 21:37:00,69.4,64.4,30.06,NW,304,0.0,3.0,84,0.00,,,0.00,meteohub,2013-04-09 01:37:00,
2013-04-08 21:42:00,69.3,64.2,30.06,NW,304,2.0,2.0,84,0.00,,,0.00,meteohub,2013-04-09 01:42:00,
2013-04-08 21:47:00,69.3,64.6,30.07,NW,304,1.0,3.0,85,0.00,,,0.00,meteohub,2013-04-09 01:47:00,
2013-04-08 21:52:00,69.3,64.6,30.07,NW,304,1.0,3.0,85,0.00,,,0.00,meteohub,2013-04-09 01:52:00,
2013-04-08 22:02:00,69.3,64.6,30.07,NW,304,0.0,3.0,85,0.00,,,0.00,meteohub,2013-04-09 02:02:00,
2013-04-08 22:07:00,69.3,64.6,30.08,NW,304,0.0,3.0,85,0.00,,,0.00,meteohub,2013-04-09 02:07:00,
2013-04-08 22:12:00,69.1,64.4,30.08,NW,304,0.0,2.0,85,0.00,,,0.00,meteohub,2013-04-09 02:12:00,
2013-04-08 22:22:00,68.7,64.4,30.08,NW,304,0.0,1.0,86,0.00,,,0.00,meteohub,2013-04-09 02:22:00,
2013-04-08 22:27:00,68.5,64.2,30.08,NW,304,0.0,1.0,86,0.00,,,0.00,meteohub,2013-04-09 02:27:00,
2013-04-08 22:37:00,68.4,64.4,30.08,NW,304,1.0,3.0,87,0.00,,,0.00,meteohub,2013-04-09 02:37:00,
2013-04-08 22:42:00,68.2,64.2,30.09,NW,304,0.0,3.0,87,0.00,,,0.00,meteohub,2013-04-09 02:42:00,
2013-04-08 22:47:00,68.0,64.4,30.09,NW,304,1.0,3.0,88,0.00,,,0.00,meteohub,2013-04-09 02:47:00,
2013-04-08 22:52:00,67.8,63.9,30.09,NW,304,0.0,2.0,87,0.00,,,0.00,meteohub,2013-04-09 02:52:00,
2013-04-08 22:57:00,67.8,64.2,30.09,NW,304,2.0,2.0,88,0.00,,,0.00,meteohub,2013-04-09 02:57:00,
2013-04-08 23:07:00,67.8,64.2,30.09,NW,304,0.0,3.0,88,0.00,,,0.00,meteohub,2013-04-09 03:07:00,
2013-04-08 23:12:00,67.8,64.2,30.09,NW,304,0.0,3.0,88,0.00,,,0.00,meteohub,2013-04-09 03:12:00,
2013-04-08 23:17:00,67.8,64.2,30.09,NW,304,0.0,3.0,88,0.00,,,0.00,meteohub,2013-04-09 03:17:00,
2013-04-08 23:22:00,68.0,64.4,30.09,NW,304,1.0,1.0,88,0.00,,,0.00,meteohub,2013-04-09 03:22:00,
2013-04-08 23:27:00,68.0,64.6,30.09,NW,311,2.0,2.0,89,0.00,,,0.00,meteohub,2013-04-09 03:27:00,
2013-04-08 23:32:00,67.8,64.2,30.09,NNW,327,2.0,3.0,88,0.00,,,0.00,meteohub,2013-04-09 03:32:00,
2013-04-08 23:37:00,67.8,64.4,30.09,NNW,331,0.0,3.0,89,0.00,,,0.00,meteohub,2013-04-09 03:37:00,
2013-04-08 23:47:00,67.6,64.2,30.09,NNW,333,0.0,3.0,89,0.00,,,0.00,meteohub,2013-04-09 03:47:00,
2013-04-08 23:52:00,67.6,64.2,30.09,NNW,333,0.0,3.0,89,0.00,,,0.00,meteohub,2013-04-09 03:52:00,
2013-04-08 23:57:00,67.8,64.4,30.09,NNW,333,0.0,2.0,89,0.00,,,0.00,meteohub,2013-04-09 03:57:00,